This demonstration page uses our WeatherBlox Daily Observations layout. Learn more.

Left ArrowRight Arrow

41.86663, -103.66717

Hourly Observations for July 22, 2018

Temp ( °F °C ) Dew Point ( °F °C ) Humidity (%) Winds ( mph kmh ) Pressure ( in mb ) Visibility ( mi km ) Precip ( " mm )
12:53 am 00:53 Clear 70 21.1 68 20 93 93 E 5 7 29.9 1013 10 16.0934 N/A
1:53 am 01:53 Clear 69 20.6 67 19.4 93 93 ESE 8 13 29.88 1012 10 16.0934 N/A
2:53 am 02:53 Clear 68 20 67 19.4 96 96 E 9 15 29.87 1012 10 16.0934 N/A
3:53 am 03:53 Clear 68 20 68 20 100 100 E 7 11 29.86 1011 10 16.0934 N/A
4:53 am 04:53 Clear 67 19.4 67 19.4 100 100 ESE 9 15 29.87 1012 10 16.0934 N/A
5:53 am 05:53 Sunny 66 18.9 66 18.9 100 100 ESE 7 11 29.89 1012 8 12.87472 N/A
6:53 am 06:53 Sunny 67 19.4 67 19.4 100 100 ESE 6 9 29.91 1013 7 11.26538 N/A
7:53 am 07:53 Sunny 71 21.7 68 20 90 90 E 5 7 29.91 1013 10 16.0934 N/A
8:53 am 08:53 Sunny 76 24.4 68 20 77 77 N N/A 29.93 1013 10 16.0934 N/A
9:53 am 09:53 Sunny 79 26.1 68 20 69 69 W 6 9 29.92 1013 10 16.0934 N/A
10:53 am 10:53 Sunny 83 28.3 69 20.6 63 63 WNW 5 7 29.91 1013 10 16.0934 N/A
11:53 am 11:53 Sunny with Light Rain 84 28.9 69 20.6 61 61 W 8 13 29.93 1014 10 16.0934 N/A
12:53 pm 12:53 Sunny 87 30.6 66 18.9 50 50 W 10 17 29.94 1014 10 16.0934 N/A
1:53 pm 13:53 Sunny 85 29.4 63 17.2 48 48 NNW 18 30 29.98 1015 10 16.0934 N/A
2:53 pm 14:53 Partly Cloudy 82 27.8 60 15.6 47 47 NW 14 22 30 1016 10 16.0934 N/A
3:53 pm 15:53 Mostly Cloudy 81 27.2 64 17.8 57 57 undefined N/A 30 1016 10 16.0934 N/A
4:53 pm 16:53 Cloudy 80 26.7 67 19.4 64 64 undefined N/A 30.03 1017 10 16.0934 N/A
5:53 pm 17:53 Mostly Sunny 83 28.3 66 18.9 57 57 undefined N/A 30.02 1017 10 16.0934 N/A
6:53 pm 18:53 Sunny 81 27.2 62 16.7 53 53 NNE 15 24 30.04 1017 10 16.0934 N/A
7:53 pm 19:53 Mostly Sunny 76 24.4 62 16.7 62 62 N 5 7 30.05 1018 10 16.0934 N/A
8:53 pm 20:53 Mostly Clear 73 22.8 60 15.6 64 64 NW 8 13 30.09 1019 10 16.0934 N/A
9:53 pm 21:53 Clear 69 20.6 61 16.1 76 76 NW 5 7 30.13 1020 10 16.0934 N/A
10:53 pm 22:53 Mostly Clear 69 20.6 62 16.7 78 78 NW 7 11 30.14 1021 10 16.0934 N/A
11:53 pm 23:53 Clear 68 20 63 17.2 84 84 WNW 7 11 30.14 1021 10 16.0934 N/A

Powered by AerisWeather